Date_Time,Julian_Date,Latitude,Longitude,Instrument_Depth,U,V,Speed,Direction
(yyyy-mm-dd hh:mn:ss UTC),(JD),(+ deg. North),(+ deg. East),(m),(cm/s),(cm/s),(cm/s),(deg True)
1978-06-10 14:00:00 UTC,2443670.083333,28.7500,-95.3000,0017,7.07,7.07,10.0000,45.0000
1978-06-10 14:30:00 UTC,2443670.104167,28.7500,-95.3000,0017,1.29,-4.83,5.0000,165.0000
1978-06-10 15:00:00 UTC,2443670.125000,28.7500,-95.3000,0017,0.21,-3.99,4.0000,177.0000
1978-06-10 15:30:00 UTC,2443670.145833,28.7500,-95.3000,0017,0.90,-3.90,4.0000,167.0000
1978-06-10 16:00:00 UTC,2443670.166667,28.7500,-95.3000,0017,0.26,-4.99,5.0000,177.0000
1978-06-10 16:30:00 UTC,2443670.187500,28.7500,-95.3000,0017,-1.29,-4.83,5.0000,195.0000
1978-06-10 17:00:00 UTC,2443670.208333,28.7500,-95.3000,0017,-0.85,-6.95,7.0000,187.0000
1978-06-10 17:30:00 UTC,2443670.229167,28.7500,-95.3000,0017,-0.94,-5.93,6.0000,189.0000
1978-06-10 18:00:00 UTC,2443670.250000,28.7500,-95.3000,0017,-0.84,-7.96,8.0000,186.0000
1978-06-10 18:30:00 UTC,2443670.270833,28.7500,-95.3000,0017,-0.73,-5.96,6.0000,187.0000
1978-06-10 19:00:00 UTC,2443670.291667,28.7500,-95.3000,0017,-0.12,-7.00,7.0000,181.0000
1978-06-10 19:30:00 UTC,2443670.312500,28.7500,-95.3000,0017,-1.39,-9.90,10.0000,188.0000
1978-06-10 20:00:00 UTC,2443670.333333,28.7500,-95.3000,0017,-3.18,-5.09,6.0000,212.0000
1978-06-10 20:30:00 UTC,2443670.354167,28.7500,-95.3000,0017,-6.44,-2.74,7.0000,247.0000
1978-06-10 21:00:00 UTC,2443670.375000,28.7500,-95.3000,0017,-6.93,-0.97,7.0000,262.0000
1978-06-10 21:30:00 UTC,2443670.395833,28.7500,-95.3000,0017,-2.88,-0.83,3.0000,254.0000
1978-06-10 22:00:00 UTC,2443670.416667,28.7500,-95.3000,0017,-4.95,-0.70,5.0000,262.0000
1978-06-10 22:30:00 UTC,2443670.437500,28.7500,-95.3000,0017,-2.00,-0.10,2.0000,267.0000
1978-06-10 23:00:00 UTC,2443670.458333,28.7500,-95.3000,0017,-4.85,1.21,5.0000,284.0000
1978-06-10 23:30:00 UTC,2443670.479167,28.7500,-95.3000,0017,-6.85,1.46,7.0000,282.0000
1978-06-11 00:00:00 UTC,2443670.500000,28.7500,-95.3000,0017,-7.97,-0.70,8.0000,265.0000
1978-06-11 00:30:00 UTC,2443670.520833,28.7500,-95.3000,0017,-9.51,-3.09,10.0000,252.0000
1978-06-11 01:00:00 UTC,2443670.541667,28.7500,-95.3000,0017,-4.41,-2.35,5.0000,242.0000
1978-06-11 01:30:00 UTC,2443670.562500,28.7500,-95.3000,0017,-1.14,-5.89,6.0000,191.0000
1978-06-11 02:00:00 UTC,2443670.583333,28.7500,-95.3000,0017,-0.73,-5.96,6.0000,187.0000
1978-06-11 02:30:00 UTC,2443670.604167,28.7500,-95.3000,0017,-0.84,-5.94,6.0000,188.0000
1978-06-11 03:00:00 UTC,2443670.625000,28.7500,-95.3000,0017,0.05,-3.00,3.0000,179.0000
1978-06-11 03:30:00 UTC,2443670.645833,28.7500,-95.3000,0017,0.17,-5.00,5.0000,178.0000
1978-06-11 04:00:00 UTC,2443670.666667,28.7500,-95.3000,0017,0.00,-6.00,6.0000,180.0000
1978-06-11 04:30:00 UTC,2443670.687500,28.7500,-95.3000,0017,-0.84,-7.96,8.0000,186.0000
1978-06-11 05:00:00 UTC,2443670.708333,28.7500,-95.3000,0017,-4.05,-2.94,5.0000,234.0000
1978-06-11 05:30:00 UTC,2443670.729167,28.7500,-95.3000,0017,-0.65,-1.89,2.0000,199.0000
1978-06-11 06:00:00 UTC,2443670.750000,28.7500,-95.3000,0017,1.03,-2.82,3.0000,160.0000
1978-06-11 06:30:00 UTC,2443670.770833,28.7500,-95.3000,0017,0.35,-4.99,5.0000,176.0000
1978-06-11 07:00:00 UTC,2443670.791667,28.7500,-95.3000,0017,-0.37,-2.98,3.0000,187.0000
1978-06-11 07:30:00 UTC,2443670.812500,28.7500,-95.3000,0017,0.00,-0.00,0.0000,167.0000
1978-06-11 08:00:00 UTC,2443670.833333,28.7500,-95.3000,0017,1.36,-2.67,3.0000,153.0000
1978-06-11 08:30:00 UTC,2443670.854167,28.7500,-95.3000,0017,1.57,-6.82,7.0000,167.0000
1978-06-11 09:00:00 UTC,2443670.875000,28.7500,-95.3000,0017,0.87,-4.92,5.0000,170.0000
1978-06-11 09:30:00 UTC,2443670.895833,28.7500,-95.3000,0017,0.87,-4.92,5.0000,170.0000
1978-06-11 10:00:00 UTC,2443670.916667,28.7500,-95.3000,0017,0.67,-2.92,3.0000,167.0000
1978-06-11 10:30:00 UTC,2443670.937500,28.7500,-95.3000,0017,2.94,-4.05,5.0000,144.0000
1978-06-11 11:00:00 UTC,2443670.958333,28.7500,-95.3000,0017,4.41,-5.44,7.0000,141.0000
1978-06-11 11:30:00 UTC,2443670.979167,28.7500,-95.3000,0017,2.87,-4.10,5.0000,145.0000
1978-06-11 12:00:00 UTC,2443671.000000,28.7500,-95.3000,0017,3.21,-3.83,5.0000,140.0000
1978-06-11 12:30:00 UTC,2443671.020833,28.7500,-95.3000,0017,3.66,-3.41,5.0000,133.0000
1978-06-11 13:00:00 UTC,2443671.041667,28.7500,-95.3000,0017,2.80,-4.15,5.0000,146.0000
1978-06-11 13:30:00 UTC,2443671.062500,28.7500,-95.3000,0017,1.79,-4.67,5.0000,159.0000
1978-06-11 14:00:00 UTC,2443671.083333,28.7500,-95.3000,0017,0.87,-4.92,5.0000,170.0000
1978-06-11 14:30:00 UTC,2443671.104167,28.7500,-95.3000,0017,1.55,-2.57,3.0000,149.0000
1978-06-11 15:00:00 UTC,2443671.125000,28.7500,-95.3000,0017,2.05,-5.64,6.0000,160.0000
1978-06-11 15:30:00 UTC,2443671.145833,28.7500,-95.3000,0017,0.44,-4.98,5.0000,175.0000
1978-06-11 16:00:00 UTC,2443671.166667,28.7500,-95.3000,0017,-0.21,-3.99,4.0000,183.0000
1978-06-11 16:30:00 UTC,2443671.187500,28.7500,-95.3000,0017,-0.10,-2.00,2.0000,183.0000
1978-06-11 17:00:00 UTC,2443671.208333,28.7500,-95.3000,0017,-0.12,-7.00,7.0000,181.0000
1978-06-11 17:30:00 UTC,2443671.229167,28.7500,-95.3000,0017,-0.14,-0.99,1.0000,188.0000
1978-06-11 18:00:00 UTC,2443671.250000,28.7500,-95.3000,0017,0.71,-0.71,1.0000,135.0000
1978-06-11 18:30:00 UTC,2443671.270833,28.7500,-95.3000,0017,2.19,2.05,3.0000,47.0000
1978-06-11 19:00:00 UTC,2443671.291667,28.7500,-95.3000,0017,1.81,0.85,2.0000,65.0000
1978-06-11 19:30:00 UTC,2443671.312500,28.7500,-95.3000,0017,-1.96,-0.38,2.0000,259.0000
1978-06-11 20:00:00 UTC,2443671.333333,28.7500,-95.3000,0017,-2.78,2.88,4.0000,316.0000
1978-06-11 20:30:00 UTC,2443671.354167,28.7500,-95.3000,0017,-3.51,7.19,8.0000,334.0000
1978-06-11 21:00:00 UTC,2443671.375000,28.7500,-95.3000,0017,-2.63,8.61,9.0000,343.0000
1978-06-11 21:30:00 UTC,2443671.395833,28.7500,-95.3000,0017,-1.81,6.76,7.0000,345.0000
1978-06-11 22:00:00 UTC,2443671.416667,28.7500,-95.3000,0017,2.34,5.52,6.0000,23.0000
1978-06-11 22:30:00 UTC,2443671.437500,28.7500,-95.3000,0017,3.27,5.03,6.0000,33.0000
1978-06-11 23:00:00 UTC,2443671.458333,28.7500,-95.3000,0017,3.76,7.06,8.0000,28.0000
1978-06-11 23:30:00 UTC,2443671.479167,28.7500,-95.3000,0017,4.02,5.73,7.0000,35.0000
1978-06-12 00:00:00 UTC,2443671.500000,28.7500,-95.3000,0017,4.41,5.44,7.0000,39.0000
1978-06-12 00:30:00 UTC,2443671.520833,28.7500,-95.3000,0017,2.12,3.39,4.0000,32.0000
1978-06-12 01:00:00 UTC,2443671.541667,28.7500,-95.3000,0017,2.97,2.68,4.0000,48.0000
1978-06-12 01:30:00 UTC,2443671.562500,28.7500,-95.3000,0017,3.47,3.60,5.0000,44.0000
1978-06-12 02:00:00 UTC,2443671.583333,28.7500,-95.3000,0017,2.62,1.45,3.0000,61.0000
1978-06-12 02:30:00 UTC,2443671.604167,28.7500,-95.3000,0017,1.36,1.46,2.0000,43.0000
1978-06-12 03:00:00 UTC,2443671.625000,28.7500,-95.3000,0017,3.18,5.09,6.0000,32.0000
1978-06-12 03:30:00 UTC,2443671.645833,28.7500,-95.3000,0017,2.00,3.46,4.0000,30.0000
1978-06-12 04:00:00 UTC,2443671.666667,28.7500,-95.3000,0017,2.46,3.15,4.0000,38.0000
1978-06-12 04:30:00 UTC,2443671.687500,28.7500,-95.3000,0017,2.12,3.39,4.0000,32.0000
1978-06-12 05:00:00 UTC,2443671.708333,28.7500,-95.3000,0017,-1.27,2.72,3.0000,335.0000
1978-06-12 05:30:00 UTC,2443671.729167,28.7500,-95.3000,0017,-4.00,6.93,8.0000,330.0000
1978-06-12 06:00:00 UTC,2443671.750000,28.7500,-95.3000,0017,-2.85,6.39,7.0000,336.0000
1978-06-12 06:30:00 UTC,2443671.770833,28.7500,-95.3000,0017,2.62,6.49,7.0000,22.0000
1978-06-12 07:00:00 UTC,2443671.791667,28.7500,-95.3000,0017,3.63,7.13,8.0000,27.0000
1978-06-12 07:30:00 UTC,2443671.812500,28.7500,-95.3000,0017,3.76,7.06,8.0000,28.0000
1978-06-12 08:00:00 UTC,2443671.833333,28.7500,-95.3000,0017,3.27,5.03,6.0000,33.0000
1978-06-12 08:30:00 UTC,2443671.854167,28.7500,-95.3000,0017,2.50,4.33,5.0000,30.0000
1978-06-12 09:00:00 UTC,2443671.875000,28.7500,-95.3000,0017,1.41,2.65,3.0000,28.0000
1978-06-12 09:30:00 UTC,2443671.895833,28.7500,-95.3000,0017,1.36,2.67,3.0000,27.0000
1978-06-12 10:00:00 UTC,2443671.916667,28.7500,-95.3000,0017,2.52,3.11,4.0000,39.0000
1978-06-12 10:30:00 UTC,2443671.937500,28.7500,-95.3000,0017,3.28,3.77,5.0000,41.0000
1978-06-12 11:00:00 UTC,2443671.958333,28.7500,-95.3000,0017,2.87,4.10,5.0000,35.0000
1978-06-12 11:30:00 UTC,2443671.979167,28.7500,-95.3000,0017,2.82,5.30,6.0000,28.0000
1978-06-12 12:00:00 UTC,2443672.000000,28.7500,-95.3000,0017,3.18,6.24,7.0000,27.0000
1978-06-12 12:30:00 UTC,2443672.020833,28.7500,-95.3000,0017,2.05,6.69,7.0000,17.0000
1978-06-12 13:00:00 UTC,2443672.041667,28.7500,-95.3000,0017,-2.34,5.52,6.0000,337.0000
1978-06-12 13:30:00 UTC,2443672.062500,28.7500,-95.3000,0017,1.85,5.71,6.0000,18.0000
1978-06-12 14:00:00 UTC,2443672.083333,28.7500,-95.3000,0017,2.05,5.64,6.0000,20.0000
1978-06-12 14:30:00 UTC,2443672.104167,28.7500,-95.3000,0017,1.63,4.73,5.0000,19.0000
1978-06-12 15:00:00 UTC,2443672.125000,28.7500,-95.3000,0017,1.29,4.83,5.0000,15.0000
1978-06-12 15:30:00 UTC,2443672.145833,28.7500,-95.3000,0017,1.38,4.81,5.0000,16.0000
1978-06-12 16:00:00 UTC,2443672.166667,28.7500,-95.3000,0017,2.39,6.58,7.0000,20.0000
1978-06-12 16:30:00 UTC,2443672.187500,28.7500,-95.3000,0017,1.95,5.67,6.0000,19.0000
1978-06-12 17:00:00 UTC,2443672.208333,28.7500,-95.3000,0017,2.51,6.54,7.0000,21.0000
1978-06-12 17:30:00 UTC,2443672.229167,28.7500,-95.3000,0017,2.74,6.44,7.0000,23.0000
1978-06-12 18:00:00 UTC,2443672.250000,28.7500,-95.3000,0017,1.85,5.71,6.0000,18.0000
1978-06-12 18:30:00 UTC,2443672.270833,28.7500,-95.3000,0017,1.55,5.80,6.0000,15.0000
1978-06-12 19:00:00 UTC,2443672.291667,28.7500,-95.3000,0017,1.29,4.83,5.0000,15.0000
1978-06-12 19:30:00 UTC,2443672.312500,28.7500,-95.3000,0017,2.27,4.46,5.0000,27.0000
1978-06-12 20:00:00 UTC,2443672.333333,28.7500,-95.3000,0017,2.27,4.46,5.0000,27.0000
1978-06-12 20:30:00 UTC,2443672.354167,28.7500,-95.3000,0017,2.96,6.34,7.0000,25.0000
1978-06-12 21:00:00 UTC,2443672.375000,28.7500,-95.3000,0017,2.39,6.58,7.0000,20.0000
1978-06-12 21:30:00 UTC,2443672.395833,28.7500,-95.3000,0017,1.85,5.71,6.0000,18.0000
1978-06-12 22:00:00 UTC,2443672.416667,28.7500,-95.3000,0017,2.05,5.64,6.0000,20.0000
1978-06-12 22:30:00 UTC,2443672.437500,28.7500,-95.3000,0017,1.65,5.77,6.0000,16.0000
1978-06-12 23:00:00 UTC,2443672.458333,28.7500,-95.3000,0017,1.93,6.73,7.0000,16.0000
1978-06-12 23:30:00 UTC,2443672.479167,28.7500,-95.3000,0017,2.16,6.66,7.0000,18.0000
1978-06-13 00:00:00 UTC,2443672.500000,28.7500,-95.3000,0017,3.25,7.31,8.0000,24.0000
1978-06-13 00:30:00 UTC,2443672.520833,28.7500,-95.3000,0017,3.07,6.29,7.0000,26.0000
1978-06-13 01:00:00 UTC,2443672.541667,28.7500,-95.3000,0017,2.82,5.30,6.0000,28.0000
1978-06-13 01:30:00 UTC,2443672.562500,28.7500,-95.3000,0017,4.31,5.52,7.0000,38.0000
1978-06-13 02:00:00 UTC,2443672.583333,28.7500,-95.3000,0017,4.41,5.44,7.0000,39.0000
1978-06-13 02:30:00 UTC,2443672.604167,28.7500,-95.3000,0017,3.69,4.73,6.0000,38.0000
1978-06-13 03:00:00 UTC,2443672.625000,28.7500,-95.3000,0017,3.09,5.14,6.0000,31.0000
1978-06-13 03:30:00 UTC,2443672.645833,28.7500,-95.3000,0017,2.11,4.53,5.0000,25.0000
1978-06-13 04:00:00 UTC,2443672.666667,28.7500,-95.3000,0017,2.54,5.44,6.0000,25.0000
1978-06-13 04:30:00 UTC,2443672.687500,28.7500,-95.3000,0017,3.63,7.13,8.0000,27.0000
1978-06-13 05:00:00 UTC,2443672.708333,28.7500,-95.3000,0017,3.76,7.06,8.0000,28.0000
1978-06-13 05:30:00 UTC,2443672.729167,28.7500,-95.3000,0017,2.74,6.44,7.0000,23.0000
1978-06-13 06:00:00 UTC,2443672.750000,28.7500,-95.3000,0017,1.38,4.81,5.0000,16.0000
1978-06-13 06:30:00 UTC,2443672.770833,28.7500,-95.3000,0017,-1.38,4.81,5.0000,344.0000
1978-06-13 07:00:00 UTC,2443672.791667,28.7500,-95.3000,0017,-2.05,6.69,7.0000,343.0000
1978-06-13 07:30:00 UTC,2443672.812500,28.7500,-95.3000,0017,-1.29,4.83,5.0000,345.0000
1978-06-13 08:00:00 UTC,2443672.833333,28.7500,-95.3000,0017,-2.05,6.69,7.0000,343.0000
1978-06-13 08:30:00 UTC,2443672.854167,28.7500,-95.3000,0017,-1.71,4.70,5.0000,340.0000
1978-06-13 09:00:00 UTC,2443672.875000,28.7500,-95.3000,0017,-1.95,5.67,6.0000,341.0000
1978-06-13 09:30:00 UTC,2443672.895833,28.7500,-95.3000,0017,2.78,8.56,9.0000,18.0000
1978-06-13 10:00:00 UTC,2443672.916667,28.7500,-95.3000,0017,2.87,7.47,8.0000,21.0000
1978-06-13 10:30:00 UTC,2443672.937500,28.7500,-95.3000,0017,3.42,9.40,10.0000,20.0000
1978-06-13 11:00:00 UTC,2443672.958333,28.7500,-95.3000,0017,-3.07,6.29,7.0000,334.0000
1978-06-13 11:30:00 UTC,2443672.979167,28.7500,-95.3000,0017,-2.42,9.70,10.0000,346.0000
1978-06-13 12:00:00 UTC,2443673.000000,28.7500,-95.3000,0017,-1.93,6.73,7.0000,344.0000
1978-06-13 12:30:00 UTC,2443673.020833,28.7500,-95.3000,0017,-2.34,7.65,8.0000,343.0000
1978-06-13 13:00:00 UTC,2443673.041667,28.7500,-95.3000,0017,2.63,8.61,9.0000,17.0000
1978-06-13 13:30:00 UTC,2443673.062500,28.7500,-95.3000,0017,1.75,5.74,6.0000,17.0000
1978-06-13 14:00:00 UTC,2443673.083333,28.7500,-95.3000,0017,3.71,11.41,12.0000,18.0000
1978-06-13 14:30:00 UTC,2443673.104167,28.7500,-95.3000,0017,-2.08,9.78,10.0000,348.0000
1978-06-13 15:00:00 UTC,2443673.125000,28.7500,-95.3000,0017,-3.40,10.46,11.0000,342.0000
1978-06-13 15:30:00 UTC,2443673.145833,28.7500,-95.3000,0017,-2.93,8.51,9.0000,341.0000
1978-06-13 16:00:00 UTC,2443673.166667,28.7500,-95.3000,0017,-3.09,9.51,10.0000,342.0000
1978-06-13 16:30:00 UTC,2443673.187500,28.7500,-95.3000,0017,3.58,10.40,11.0000,19.0000
1978-06-13 17:00:00 UTC,2443673.208333,28.7500,-95.3000,0017,4.30,10.13,11.0000,23.0000
1978-06-13 17:30:00 UTC,2443673.229167,28.7500,-95.3000,0017,5.00,8.66,10.0000,30.0000
1978-06-13 18:00:00 UTC,2443673.250000,28.7500,-95.3000,0017,-3.25,7.31,8.0000,336.0000
1978-06-13 18:30:00 UTC,2443673.270833,28.7500,-95.3000,0017,-2.78,8.56,9.0000,342.0000
1978-06-13 19:00:00 UTC,2443673.291667,28.7500,-95.3000,0017,-3.37,8.34,9.0000,338.0000
1978-06-13 19:30:00 UTC,2443673.312500,28.7500,-95.3000,0017,-3.52,8.28,9.0000,337.0000
1978-06-13 20:00:00 UTC,2443673.333333,28.7500,-95.3000,0017,-2.87,7.47,8.0000,339.0000
1978-06-13 20:30:00 UTC,2443673.354167,28.7500,-95.3000,0017,3.23,8.40,9.0000,21.0000
1978-06-13 21:00:00 UTC,2443673.375000,28.7500,-95.3000,0017,3.00,7.42,8.0000,22.0000
1978-06-13 21:30:00 UTC,2443673.395833,28.7500,-95.3000,0017,2.15,5.60,6.0000,21.0000
1978-06-13 22:00:00 UTC,2443673.416667,28.7500,-95.3000,0017,-2.51,6.54,7.0000,339.0000
1978-06-13 22:30:00 UTC,2443673.437500,28.7500,-95.3000,0017,-4.09,8.02,9.0000,333.0000
1978-06-13 23:00:00 UTC,2443673.458333,28.7500,-95.3000,0017,-3.66,8.22,9.0000,336.0000
1978-06-13 23:30:00 UTC,2443673.479167,28.7500,-95.3000,0017,-4.23,9.06,10.0000,335.0000
1978-06-14 00:00:00 UTC,2443673.500000,28.7500,-95.3000,0017,-4.66,12.14,13.0000,339.0000
1978-06-14 00:30:00 UTC,2443673.520833,28.7500,-95.3000,0017,-3.88,14.49,15.0000,345.0000
1978-06-14 01:00:00 UTC,2443673.541667,28.7500,-95.3000,0017,-3.91,11.35,12.0000,341.0000
1978-06-14 01:30:00 UTC,2443673.562500,28.7500,-95.3000,0017,-4.88,14.18,15.0000,341.0000
1978-06-14 02:00:00 UTC,2443673.583333,28.7500,-95.3000,0017,-4.82,9.89,11.0000,334.0000
1978-06-14 02:30:00 UTC,2443673.604167,28.7500,-95.3000,0017,-6.69,6.02,9.0000,312.0000
1978-06-14 03:00:00 UTC,2443673.625000,28.7500,-95.3000,0017,-3.78,4.66,6.0000,321.0000
1978-06-14 03:30:00 UTC,2443673.645833,28.7500,-95.3000,0017,3.15,2.46,4.0000,52.0000
1978-06-14 04:00:00 UTC,2443673.666667,28.7500,-95.3000,0017,7.88,-1.39,8.0000,100.0000
1978-06-14 04:30:00 UTC,2443673.687500,28.7500,-95.3000,0017,6.62,2.28,7.0000,71.0000
1978-06-14 05:00:00 UTC,2443673.708333,28.7500,-95.3000,0017,-1.45,2.62,3.0000,331.0000
1978-06-14 05:30:00 UTC,2443673.729167,28.7500,-95.3000,0017,-3.72,3.35,5.0000,312.0000
1978-06-14 06:00:00 UTC,2443673.750000,28.7500,-95.3000,0017,-2.98,-0.31,3.0000,264.0000
1978-06-14 06:30:00 UTC,2443673.770833,28.7500,-95.3000,0017,-2.08,-2.16,3.0000,224.0000
1978-06-14 07:00:00 UTC,2443673.791667,28.7500,-95.3000,0017,0.61,-4.96,5.0000,173.0000
1978-06-14 07:30:00 UTC,2443673.812500,28.7500,-95.3000,0017,1.67,-11.88,12.0000,172.0000
1978-06-14 08:00:00 UTC,2443673.833333,28.7500,-95.3000,0017,4.30,-11.20,12.0000,159.0000
1978-06-14 08:30:00 UTC,2443673.854167,28.7500,-95.3000,0017,2.42,-9.70,10.0000,166.0000
1978-06-14 09:00:00 UTC,2443673.875000,28.7500,-95.3000,0017,3.42,-9.40,10.0000,160.0000
1978-06-14 09:30:00 UTC,2443673.895833,28.7500,-95.3000,0017,3.75,-9.27,10.0000,158.0000
1978-06-14 10:00:00 UTC,2443673.916667,28.7500,-95.3000,0017,2.48,-8.65,9.0000,164.0000
1978-06-14 10:30:00 UTC,2443673.937500,28.7500,-95.3000,0017,0.84,-5.94,6.0000,172.0000
1978-06-14 11:00:00 UTC,2443673.958333,28.7500,-95.3000,0017,0.67,-2.92,3.0000,167.0000
1978-06-14 11:30:00 UTC,2443673.979167,28.7500,-95.3000,0017,1.24,-3.80,4.0000,162.0000
1978-06-14 12:00:00 UTC,2443674.000000,28.7500,-95.3000,0017,1.00,-1.73,2.0000,150.0000
1978-06-14 12:30:00 UTC,2443674.020833,28.7500,-95.3000,0017,0.83,-2.88,3.0000,164.0000
1978-06-14 13:00:00 UTC,2443674.041667,28.7500,-95.3000,0017,0.35,-1.97,2.0000,170.0000
1978-06-14 13:30:00 UTC,2443674.062500,28.7500,-95.3000,0017,0.05,-1.00,1.0000,177.0000
1978-06-14 14:00:00 UTC,2443674.083333,28.7500,-95.3000,0017,0.38,-1.96,2.0000,169.0000
1978-06-14 14:30:00 UTC,2443674.104167,28.7500,-95.3000,0017,0.35,-1.97,2.0000,170.0000
1978-06-14 15:00:00 UTC,2443674.125000,28.7500,-95.3000,0017,0.88,-2.87,3.0000,163.0000
1978-06-14 15:30:00 UTC,2443674.145833,28.7500,-95.3000,0017,0.45,-1.95,2.0000,167.0000
1978-06-14 16:00:00 UTC,2443674.166667,28.7500,-95.3000,0017,-0.42,-5.99,6.0000,184.0000
1978-06-14 16:30:00 UTC,2443674.187500,28.7500,-95.3000,0017,0.26,-2.99,3.0000,175.0000
1978-06-14 17:00:00 UTC,2443674.208333,28.7500,-95.3000,0017,1.10,-3.85,4.0000,164.0000
1978-06-14 17:30:00 UTC,2443674.229167,28.7500,-95.3000,0017,0.52,-1.93,2.0000,165.0000
1978-06-14 18:00:00 UTC,2443674.250000,28.7500,-95.3000,0017,-0.10,-6.00,6.0000,181.0000
1978-06-14 18:30:00 UTC,2443674.270833,28.7500,-95.3000,0017,-0.37,-6.99,7.0000,183.0000
1978-06-14 19:00:00 UTC,2443674.291667,28.7500,-95.3000,0017,-0.78,-8.97,9.0000,185.0000
1978-06-14 19:30:00 UTC,2443674.312500,28.7500,-95.3000,0017,-0.77,-10.97,11.0000,184.0000
1978-06-14 20:00:00 UTC,2443674.333333,28.7500,-95.3000,0017,1.46,-13.92,14.0000,174.0000
1978-06-14 20:30:00 UTC,2443674.354167,28.7500,-95.3000,0017,3.31,-11.54,12.0000,164.0000
1978-06-14 21:00:00 UTC,2443674.375000,28.7500,-95.3000,0017,3.11,-11.59,12.0000,165.0000
1978-06-14 21:30:00 UTC,2443674.395833,28.7500,-95.3000,0017,1.22,-9.93,10.0000,173.0000
1978-06-14 22:00:00 UTC,2443674.416667,28.7500,-95.3000,0017,3.88,-14.49,15.0000,165.0000
1978-06-14 22:30:00 UTC,2443674.437500,28.7500,-95.3000,0017,4.39,-14.34,15.0000,163.0000
1978-06-14 23:00:00 UTC,2443674.458333,28.7500,-95.3000,0017,4.13,-14.42,15.0000,164.0000
1978-06-14 23:30:00 UTC,2443674.479167,28.7500,-95.3000,0017,3.31,-11.54,12.0000,164.0000
1978-06-15 00:00:00 UTC,2443674.500000,28.7500,-95.3000,0017,2.90,-11.64,12.0000,166.0000
1978-06-15 00:30:00 UTC,2443674.520833,28.7500,-95.3000,0017,2.59,-9.66,10.0000,165.0000
1978-06-15 01:00:00 UTC,2443674.541667,28.7500,-95.3000,0017,1.53,-7.85,8.0000,169.0000
1978-06-15 01:30:00 UTC,2443674.562500,28.7500,-95.3000,0017,1.39,-7.88,8.0000,170.0000
1978-06-15 02:00:00 UTC,2443674.583333,28.7500,-95.3000,0017,0.97,-7.94,8.0000,173.0000
1978-06-15 02:30:00 UTC,2443674.604167,28.7500,-95.3000,0017,1.56,-9.88,10.0000,171.0000
1978-06-15 03:00:00 UTC,2443674.625000,28.7500,-95.3000,0017,1.05,-11.95,12.0000,175.0000
1978-06-15 03:30:00 UTC,2443674.645833,28.7500,-95.3000,0017,0.56,-7.98,8.0000,176.0000
1978-06-15 04:00:00 UTC,2443674.666667,28.7500,-95.3000,0017,0.42,-3.98,4.0000,174.0000
1978-06-15 04:30:00 UTC,2443674.687500,28.7500,-95.3000,0017,0.07,-4.00,4.0000,179.0000
1978-06-15 05:00:00 UTC,2443674.708333,28.7500,-95.3000,0017,0.00,-4.00,4.0000,180.0000
1978-06-15 05:30:00 UTC,2443674.729167,28.7500,-95.3000,0017,2.29,-10.76,11.0000,168.0000
1978-06-15 06:00:00 UTC,2443674.750000,28.7500,-95.3000,0017,1.80,-7.79,8.0000,167.0000
1978-06-15 06:30:00 UTC,2443674.770833,28.7500,-95.3000,0017,0.42,-3.98,4.0000,174.0000
1978-06-15 07:00:00 UTC,2443674.791667,28.7500,-95.3000,0017,1.12,-4.87,5.0000,167.0000
1978-06-15 07:30:00 UTC,2443674.812500,28.7500,-95.3000,0017,0.42,-5.99,6.0000,176.0000
1978-06-15 08:00:00 UTC,2443674.833333,28.7500,-95.3000,0017,1.10,-6.91,7.0000,171.0000
1978-06-15 08:30:00 UTC,2443674.854167,28.7500,-95.3000,0017,0.52,-9.99,10.0000,177.0000
1978-06-15 09:00:00 UTC,2443674.875000,28.7500,-95.3000,0017,1.39,-9.90,10.0000,172.0000
1978-06-15 09:30:00 UTC,2443674.895833,28.7500,-95.3000,0017,1.87,-8.80,9.0000,168.0000
1978-06-15 10:00:00 UTC,2443674.916667,28.7500,-95.3000,0017,2.59,-9.66,10.0000,165.0000
1978-06-15 10:30:00 UTC,2443674.937500,28.7500,-95.3000,0017,2.33,-8.69,9.0000,165.0000
1978-06-15 11:00:00 UTC,2443674.958333,28.7500,-95.3000,0017,2.66,-10.67,11.0000,166.0000
1978-06-15 11:30:00 UTC,2443674.979167,28.7500,-95.3000,0017,1.05,-9.95,10.0000,174.0000
1978-06-15 12:00:00 UTC,2443675.000000,28.7500,-95.3000,0017,2.08,-9.78,10.0000,168.0000
1978-06-15 12:30:00 UTC,2443675.020833,28.7500,-95.3000,0017,2.63,-8.61,9.0000,163.0000
1978-06-15 13:00:00 UTC,2443675.041667,28.7500,-95.3000,0017,1.41,-8.89,9.0000,171.0000
1978-06-15 13:30:00 UTC,2443675.062500,28.7500,-95.3000,0017,1.22,-9.93,10.0000,173.0000
1978-06-15 14:00:00 UTC,2443675.083333,28.7500,-95.3000,0017,1.81,-6.76,7.0000,165.0000
1978-06-15 14:30:00 UTC,2443675.104167,28.7500,-95.3000,0017,1.04,-4.89,5.0000,168.0000
1978-06-15 15:00:00 UTC,2443675.125000,28.7500,-95.3000,0017,-8.00,-13.86,16.0000,210.0000
1978-06-15 15:30:00 UTC,2443675.145833,28.7500,-95.3000,0017,-7.27,-13.12,15.0000,209.0000
1978-06-15 16:00:00 UTC,2443675.166667,28.7500,-95.3000,0017,-6.58,-13.48,15.0000,206.0000
1978-06-15 16:30:00 UTC,2443675.187500,28.7500,-95.3000,0017,-6.79,-12.24,14.0000,209.0000
1978-06-15 17:00:00 UTC,2443675.208333,28.7500,-95.3000,0017,-8.71,-13.42,16.0000,213.0000
1978-06-15 17:30:00 UTC,2443675.229167,28.7500,-95.3000,0017,-7.05,-9.71,12.0000,216.0000
1978-06-15 18:00:00 UTC,2443675.250000,28.7500,-95.3000,0017,-6.77,-8.67,11.0000,218.0000
1978-06-15 18:30:00 UTC,2443675.270833,28.7500,-95.3000,0017,-6.02,-6.69,9.0000,222.0000
1978-06-15 19:00:00 UTC,2443675.291667,28.7500,-95.3000,0017,-6.73,-1.93,7.0000,254.0000
1978-06-15 19:30:00 UTC,2443675.312500,28.7500,-95.3000,0017,-9.34,-3.58,10.0000,249.0000
1978-06-15 20:00:00 UTC,2443675.333333,28.7500,-95.3000,0017,-8.57,-5.15,10.0000,239.0000
1978-06-15 20:30:00 UTC,2443675.354167,28.7500,-95.3000,0017,-8.91,-4.54,10.0000,243.0000
1978-06-15 21:00:00 UTC,2443675.375000,28.7500,-95.3000,0017,-9.14,-4.07,10.0000,246.0000
1978-06-15 21:30:00 UTC,2443675.395833,28.7500,-95.3000,0017,-11.13,-4.50,12.0000,248.0000
1978-06-15 22:00:00 UTC,2443675.416667,28.7500,-95.3000,0017,-9.27,-3.75,10.0000,248.0000
1978-06-15 22:30:00 UTC,2443675.437500,28.7500,-95.3000,0017,-11.48,-3.51,12.0000,253.0000
1978-06-15 23:00:00 UTC,2443675.458333,28.7500,-95.3000,0017,-5.64,-2.05,6.0000,250.0000
1978-06-15 23:30:00 UTC,2443675.479167,28.7500,-95.3000,0017,-4.41,-2.35,5.0000,242.0000
1978-06-16 00:00:00 UTC,2443675.500000,28.7500,-95.3000,0017,-3.89,-3.15,5.0000,231.0000
1978-06-16 00:30:00 UTC,2443675.520833,28.7500,-95.3000,0017,-0.10,-2.00,2.0000,183.0000
1978-06-16 01:00:00 UTC,2443675.541667,28.7500,-95.3000,0017,0.68,-0.73,1.0000,137.0000
1978-06-16 01:30:00 UTC,2443675.562500,28.7500,-95.3000,0017,8.51,-2.93,9.0000,109.0000
1978-06-16 02:00:00 UTC,2443675.583333,28.7500,-95.3000,0017,5.56,-2.25,6.0000,112.0000
1978-06-16 02:30:00 UTC,2443675.604167,28.7500,-95.3000,0017,8.29,-5.59,10.0000,124.0000
1978-06-16 03:00:00 UTC,2443675.625000,28.7500,-95.3000,0017,1.95,-13.86,14.0000,172.0000
1978-06-16 03:30:00 UTC,2443675.645833,28.7500,-95.3000,0017,-2.86,-14.72,15.0000,191.0000
1978-06-16 04:00:00 UTC,2443675.666667,28.7500,-95.3000,0017,-2.26,-12.80,13.0000,190.0000
1978-06-16 04:30:00 UTC,2443675.687500,28.7500,-95.3000,0017,-2.66,-16.79,17.0000,189.0000